GFSSGP_sfc_dewp_003.txt.gz
Dewpoint
55 54 52 46 34 30 26 25 22 25 23 26 30 28 28 33 33 32 48 53 56 61 62 64 66 66 66 67 68 69 69 69 69 69 68 67 66 66 67 66 66 66 67 67 68 68 68 68 69
51 47 46 42 31 27 26 21 21 26 26 26 27 29 26 31 39 44 43 52 53 58 59 60 65 65 66 66 66 66 66 66 67 67 66 65 64 65 65 65 64 65 65 66 66 65 64 65 66
46 44 42 37 32 25 19 19 24 26 26 26 27 29 29 33 40 43 43 51 52 55 57 60 63 64 64 64 65 65 65 64 66 64 63 63 62 62 61 60 59 59 60 62 63 62 62 62 63
42 39 34 24 22 21 15 18 25 25 25 26 26 25 30 35 40 40 45 50 51 54 56 60 61 61 61 61 62 63 62 64 61 59 58 59 57 57 55 54 53 54 54 55 56 55 54 55 56
38 37 31 27 23 19 17 22 24 24 24 24 25 24 27 35 36 39 44 49 50 52 53 56 60 59 59 58 58 57 58 59 57 55 54 53 52 52 52 52 52 52 52 52 53 53 53 52 52
33 31 24 24 24 19 18 19 22 23 24 24 24 24 27 34 32 33 38 47 49 51 51 53 57 58 57 57 56 55 55 55 53 52 51 50 50 50 50 50 50 50 50 51 52 51 51 51 50
37 33 29 27 26 21 20 20 19 20 22 23 24 23 29 32 32 30 31 39 48 49 49 49 50 53 55 56 55 54 53 51 51 50 48 46 46 47 46 47 48 48 49 49 49 49 49 48 49
31 28 23 22 21 20 20 20 21 20 21 25 25 22 23 30 32 28 26 28 40 44 46 46 46 47 46 47 54 53 51 49 46 45 45 45 43 44 43 44 45 46 47 47 47 47 47 45 46
35 26 23 23 22 21 21 20 23 22 21 24 25 25 27 32 30 25 23 23 31 36 37 41 42 43 42 44 48 51 49 45 44 43 44 45 37 37 40 43 42 43 44 43 43 43 42 43 44
33 31 28 25 21 19 21 20 22 21 20 20 23 26 30 27 25 24 23 22 25 30 33 35 35 37 39 38 43 41 41 41 40 40 37 39 35 37 40 44 43 41 40 40 41 40 41 40 38
30 25 28 24 24 23 21 21 22 21 21 21 20 24 28 26 24 24 23 23 22 26 29 33 33 33 35 31 39 39 39 38 38 36 37 37 36 36 37 37 37 36 38 34 35 35 36 34 35
28 28 28 31 26 25 23 23 21 21 20 23 23 23 26 24 24 24 24 24 23 25 26 28 31 30 31 34 37 36 37 37 38 35 35 36 35 33 34 34 34 33 33 31 32 34 33 32 33
27 28 29 29 28 26 27 26 26 25 24 24 23 25 25 25 23 23 24 26 26 25 26 25 29 29 30 33 35 35 35 36 36 32 32 35 33 31 32 31 32 31 30 30 30 30 31 31 33
27 29 28 27 27 27 27 27 26 25 27 26 25 24 25 25 24 22 24 25 27 26 26 25 27 27 31 31 32 33 33 34 35 31 30 31 31 29 30 30 30 29 29 29 29 28 28 30 31
28 24 24 22 25 26 27 24 25 26 25 24 25 25 25 26 26 24 23 24 27 27 26 24 24 27 30 29 30 32 32 32 33 30 28 28 28 26 28 28 29 28 28 27 28 27 28 28 29
24 24 22 20 26 27 23 19 22 25 25 24 24 23 23 25 26 26 25 24 27 28 26 24 22 26 29 28 30 30 30 31 32 30 28 26 26 25 26 27 27 27 27 26 26 26 27 27 28
23 17 21 22 25 27 24 22 24 23 24 23 22 23 23 23 25 25 26 25 26 27 25 23 23 26 27 27 29 29 27 28 29 28 26 24 25 25 25 26 26 26 26 26 26 26 26 26 27
17 20 20 19 22 25 25 23 23 24 23 21 20 20 22 23 23 24 26 26 26 26 24 22 22 25 26 28 28 28 27 26 25 25 26 24 25 25 25 25 26 26 26 26 26 24 26 26 27
17 17 17 18 20 23 22 22 22 23 24 23 22 22 21 22 23 23 26 26 26 24 22 20 22 24 24 26 26 26 23 24 23 23 24 23 23 24 24 25 24 25 25 25 24 25 25 26 27
21 19 17 15 17 21 19 19 21 24 23 23 22 22 22 22 22 21 26 26 25 21 21 21 21 24 23 25 24 24 23 23 22 24 23 23 24 24 24 24 24 24 24 24 24 25 25 26 26
19 18 16 16 18 21 19 19 20 22 23 23 23 23 23 22 22 23 26 26 24 20 20 20 21 23 23 23 23 23 24 23 22 23 21 24 25 26 23 23 24 23 24 24 24 24 24 23 24
15 21 20 21 22 15 20 12 15 19 21 21 22 21 20 21 21 23 25 26 23 20 19 20 21 22 23 23 21 21 19 19 19 20 22 24 25 24 25 24 23 23 24 24 24 24 24 23 22
18 23 21 22 22 22 20 17 14 15 15 16 16 17 18 19 21 24 24 26 23 20 19 20 21 22 22 23 21 21 19 20 19 22 22 23 25 24 23 24 23 22 24 23 23 23 22 24 24
24 21 21 20 19 16 17 14 9 14 15 16 16 17 16 19 21 24 23 25 23 20 19 19 21 22 22 22 22 19 18 19 20 21 22 22 23 23 22 23 22 22 22 21 21 22 21 21 22
23 20 18 15 17 15 13 15 11 15 16 16 16 15 16 21 23 22 22 24 23 21 20 20 21 21 22 21 21 19 18 17 17 20 21 21 21 21 20 21 21 20 19 21 20 19 19 20 20
22 21 20 9 10 9 21 16 14 19 17 17 15 14 15 24 23 23 22 23 22 22 21 20 22 20 21 21 21 21 19 18 17 19 20 19 19 18 18 19 19 18 18 18 18 18 19 19 21
21 20 20 21 13 17 14 15 15 20 19 18 17 16 20 25 24 23 22 22 22 22 22 21 21 21 20 21 21 20 20 18 17 17 19 19 18 15 17 16 16 17 17 17 17 18 18 19 20
21 21 20 22 12 11 12 11 11 14 14 16 18 16 21 24 25 26 23 22 22 21 22 22 21 21 20 21 22 21 20 19 18 19 18 17 15 14 14 15 15 16 16 16 16 17 18 18 19
19 20 19 19 23 13 11 11 14 15 15 14 18 18 18 22 24 26 26 24 23 22 22 22 22 22 21 21 22 21 21 20 19 18 16 15 13 13 13 13 14 14 15 15 15 15 16 17 17
18 19 18 16 15 19 18 15 16 15 17 18 17 17 20 23 23 23 26 26 24 23 22 21 22 22 22 21 22 21 20 19 17 15 13 13 11 12 12 13 13 13 13 13 13 14 16 15 12

GFSSGP_sfc_dewp_006.txt.gz
Dewpoint
56 50 52 45 32 29 25 27 22 24 23 26 30 28 27 32 31 30 49 57 61 62 64 66 69 68 69 70 70 70 70 70 69 69 67 66 66 67 67 67 67 67 67 67 67 66 65 66 67
49 46 46 40 32 26 25 26 21 23 25 27 28 28 27 28 41 46 51 57 60 61 62 64 67 67 67 67 67 68 67 67 65 66 66 65 65 67 66 64 64 64 64 66 66 64 63 63 64
45 44 41 36 31 26 22 20 20 26 26 25 26 28 28 31 40 45 45 54 58 58 59 62 66 67 66 66 66 66 66 67 67 65 64 63 63 62 61 59 58 57 58 60 59 57 56 56 58
41 37 32 28 28 26 19 17 25 25 25 26 26 32 29 36 40 44 47 54 56 56 58 62 65 65 65 65 65 64 64 65 64 63 62 60 59 57 55 55 54 54 55 55 54 54 54 53 53
38 36 30 28 23 20 17 21 26 24 24 24 25 22 27 33 40 44 50 53 54 55 57 60 64 63 63 64 64 64 64 62 60 58 58 56 54 53 53 53 53 52 52 53 53 53 52 51 51
33 30 24 25 24 25 17 23 24 23 24 24 24 25 25 34 40 45 49 51 53 54 55 57 61 62 61 61 60 60 61 58 57 55 54 53 52 52 52 51 50 51 51 51 51 51 50 50 50
33 33 29 28 26 24 19 20 21 22 23 23 24 22 30 33 35 40 46 49 51 52 52 53 55 58 60 60 59 58 58 56 55 53 52 51 50 48 49 49 49 49 49 50 49 49 47 47 47
33 27 27 24 21 21 20 20 20 20 20 25 25 22 22 31 33 33 39 47 49 49 49 49 50 51 52 55 58 57 56 54 53 51 50 50 48 45 47 47 47 48 48 47 47 45 44 44 44
35 22 22 21 23 20 21 20 22 22 21 24 25 24 26 32 30 28 27 34 45 47 47 47 47 47 46 48 52 55 54 53 52 51 50 46 39 40 41 47 45 45 44 44 44 43 41 40 42
32 27 22 24 26 20 21 20 20 20 20 20 23 26 31 31 27 26 25 26 40 43 43 45 45 44 43 44 48 47 46 44 42 40 42 37 35 38 42 45 44 42 40 40 41 39 38 36 35
32 26 28 26 24 23 21 20 21 21 20 21 20 22 29 29 28 26 25 25 29 37 39 42 41 41 40 41 43 42 41 40 40 37 37 37 37 39 37 36 36 34 35 31 33 32 32 31 33
28 29 26 30 29 25 23 23 21 22 20 23 23 23 29 27 28 27 26 24 23 28 32 36 37 38 37 37 40 38 38 38 38 37 37 36 35 34 34 34 33 31 31 29 30 31 30 30 31
29 29 28 29 29 28 26 25 23 24 24 24 24 25 27 28 26 27 27 26 24 24 28 32 33 33 35 33 37 36 36 38 37 35 37 36 33 33 33 32 31 29 29 28 28 28 28 29 30
26 28 28 28 27 27 26 25 26 24 26 26 26 25 25 27 27 26 25 25 25 24 26 28 32 31 32 31 34 34 35 36 36 32 34 33 32 31 31 31 30 28 28 27 28 27 28 28 29
27 24 24 23 24 23 27 24 25 24 25 24 24 25 26 25 26 25 25 25 25 26 26 26 29 30 30 30 33 34 35 35 34 31 30 32 30 29 29 30 28 27 27 26 26 26 27 26 27
23 26 20 18 25 25 22 19 21 25 25 24 24 24 24 26 26 26 25 24 25 26 26 26 26 29 29 29 31 32 33 33 33 29 29 29 28 27 28 28 27 27 26 26 25 26 24 25 26
22 15 19 20 25 26 23 22 24 24 24 23 22 22 23 24 24 26 26 25 25 26 27 26 25 27 29 29 30 32 31 32 31 29 27 26 27 27 27 27 27 27 26 26 25 25 24 23 25
17 19 19 16 20 25 24 23 23 23 21 21 20 20 20 21 23 24 26 27 26 26 27 26 25 26 29 29 30 29 30 30 30 28 26 25 26 26 26 26 26 27 26 26 25 22 25 25 25
15 16 17 16 16 23 23 22 23 23 22 23 23 23 22 22 22 24 26 27 26 27 26 24 24 26 27 28 28 28 27 27 27 27 26 25 25 25 25 26 25 26 25 24 22 24 24 26 25
22 19 17 17 20 21 19 17 18 21 21 20 21 22 23 23 22 23 24 27 27 26 26 24 24 25 26 26 27 26 24 24 24 25 25 24 25 25 24 25 24 24 24 24 24 24 24 26 25
21 20 19 18 19 20 19 17 19 20 21 21 24 24 24 23 22 23 22 26 26 25 24 23 24 24 24 26 26 25 24 22 22 23 23 24 25 26 24 24 25 24 24 24 23 24 22 23 24
18 21 21 20 20 14 18 12 13 16 18 20 22 22 23 23 23 23 23 26 25 24 23 22 23 24 24 25 25 23 22 20 20 20 23 24 25 24 25 24 24 24 25 24 24 25 24 23 21
20 20 19 21 21 21 21 19 20 17 16 16 16 18 18 18 20 22 24 26 25 23 22 22 23 23 23 24 24 23 22 22 21 22 22 22 24 24 24 24 23 23 24 24 24 24 24 23 23
23 21 21 22 19 16 16 16 11 14 14 14 15 15 16 16 19 21 24 27 24 21 22 22 22 23 24 23 23 22 21 21 21 22 22 22 23 23 23 23 22 22 23 24 24 23 23 24 22
22 20 17 14 16 15 13 16 11 12 13 15 13 14 15 17 19 22 24 26 22 20 21 22 22 22 24 24 22 21 20 20 19 21 21 21 22 22 21 22 22 22 22 22 23 22 21 21 20
20 18 19 12 11 11 19 14 13 17 16 16 17 17 17 16 21 23 24 25 23 21 21 20 23 22 23 23 22 22 20 21 20 20 21 21 20 20 20 21 21 21 21 21 20 19 20 20 20
19 19 19 22 11 15 13 14 16 19 16 16 17 18 18 17 22 23 23 24 24 22 21 20 21 22 22 22 23 22 21 20 19 20 21 21 20 20 20 20 19 19 19 19 18 18 18 19 20
21 22 20 21 16 12 13 13 13 15 15 16 16 16 18 20 24 24 22 23 24 24 22 22 21 21 22 23 22 22 22 20 19 20 20 20 20 19 19 18 18 18 18 17 17 18 19 18 19
20 20 20 20 25 17 15 15 15 14 16 16 17 16 19 20 24 25 24 23 23 23 23 23 22 22 22 22 22 22 22 21 20 19 19 20 18 17 17 17 16 16 16 16 16 17 18 18 18
19 18 19 17 19 20 20 18 24 22 22 22 19 18 15 21 22 23 26 26 24 23 22 22 23 23 23 22 22 22 22 21 20 19 18 18 16 16 15 15 14 14 14 15 15 16 17 16 15

GFSSGP_sfc_dewp_009.txt.gz
Dewpoint
53 49 49 43 30 30 26 25 23 23 22 26 28 27 29 30 31 29 49 58 61 64 65 68 70 71 71 71 71 71 70 70 70 69 68 68 67 67 66 66 66 67 67 67 66 65 64 64 65
47 46 45 39 31 22 22 28 21 23 24 28 28 28 29 28 41 46 53 57 62 63 64 65 69 70 70 71 71 71 71 69 68 67 66 65 67 67 65 64 64 63 64 65 63 61 60 60 61
45 43 41 35 30 26 23 20 20 25 26 25 27 28 29 28 39 46 52 59 61 61 62 64 68 68 68 68 68 67 67 67 67 64 64 65 65 63 61 60 59 59 61 59 57 57 56 56 56
40 35 31 31 30 29 25 20 20 25 25 26 25 27 28 35 39 45 48 58 58 58 60 64 67 67 67 67 67 65 65 65 65 64 64 63 62 59 57 56 55 56 55 55 55 54 53 53 53
37 34 26 28 24 22 20 18 25 24 23 24 27 24 27 32 39 45 54 58 57 57 58 62 66 65 66 66 66 64 64 64 64 64 62 60 57 56 55 55 54 54 54 53 53 52 52 52 52
32 30 26 24 24 24 25 21 25 23 23 23 24 33 24 34 41 46 53 55 56 56 57 59 63 65 65 65 65 64 64 64 62 60 58 56 55 54 53 53 53 52 52 52 51 51 51 51 50
33 31 27 25 25 24 23 24 22 22 22 23 24 23 25 32 39 48 51 52 53 55 56 56 58 61 62 64 64 64 63 60 58 56 55 54 53 52 51 50 51 51 51 51 51 48 48 48 48
34 28 28 25 21 21 21 20 20 20 20 25 24 21 22 28 37 45 49 50 51 52 53 53 55 56 56 57 60 61 61 59 57 55 55 54 51 50 50 51 51 50 50 49 48 46 45 46 45
32 20 21 19 21 23 21 20 21 21 26 24 25 24 28 33 35 39 42 46 49 50 51 51 51 52 52 53 55 58 58 58 56 55 54 51 43 44 44 49 50 47 47 47 45 42 41 41 42
31 22 17 20 23 24 20 20 20 26 20 20 22 25 31 32 34 38 37 44 47 48 49 49 49 49 48 48 51 51 51 50 48 47 45 39 38 40 42 47 47 45 44 43 42 40 38 35 33
32 26 27 26 28 24 23 20 21 20 20 21 20 21 30 31 31 33 36 42 45 47 47 47 48 47 46 46 47 47 45 44 42 40 40 36 36 41 39 38 35 34 34 31 31 31 30 29 31
29 30 26 28 29 26 23 23 21 21 21 22 22 22 28 30 29 29 30 31 33 42 45 45 46 45 42 42 45 44 42 40 39 37 38 36 38 35 34 34 32 30 30 28 29 30 29 28 28
30 30 30 30 30 28 28 26 24 24 24 23 23 24 25 28 30 29 29 28 27 32 40 42 43 43 41 39 43 41 39 40 38 36 37 36 35 34 33 32 31 29 29 27 27 27 27 27 27
27 27 27 28 28 28 26 25 25 24 25 24 25 25 24 27 28 29 28 28 26 25 30 37 40 40 39 36 39 39 38 38 37 35 36 35 34 33 32 31 29 27 27 27 26 25 25 25 27
27 24 23 24 25 25 27 22 24 24 23 22 24 25 26 26 27 27 27 28 28 26 25 31 36 37 37 34 35 35 35 37 36 34 34 34 33 31 30 31 28 27 27 26 26 26 24 23 24
21 26 19 17 24 22 21 15 14 23 24 23 23 23 24 25 26 26 27 27 27 27 25 28 31 34 34 33 33 33 34 35 35 32 32 33 31 30 29 29 27 27 26 25 24 23 22 22 24
20 16 17 19 22 21 22 19 20 23 23 22 22 22 22 22 23 26 26 26 26 26 26 26 28 32 32 32 32 33 33 34 34 31 30 30 29 29 28 28 27 27 26 25 24 24 21 21 22
17 18 19 16 15 24 23 23 23 23 22 22 21 22 22 22 21 21 24 27 26 26 26 26 27 29 31 31 31 33 33 33 33 30 28 28 28 28 27 27 27 27 26 25 23 21 25 24 23
16 16 16 17 18 22 22 21 21 21 22 22 23 23 22 22 22 22 23 27 27 26 26 26 26 27 29 29 30 30 29 31 31 30 27 26 26 27 26 26 25 26 25 24 21 24 21 25 24
22 20 19 19 19 18 18 17 18 19 20 20 19 19 19 19 20 21 24 26 27 26 27 27 26 26 28 29 29 28 28 28 29 29 27 25 26 26 26 25 25 25 23 23 23 23 24 25 24
21 20 18 18 20 20 19 17 18 19 20 19 20 20 20 20 21 22 23 24 26 26 27 27 26 26 27 28 27 25 24 23 24 26 26 25 26 26 25 24 25 24 24 23 22 22 20 22 23
17 21 21 21 21 16 17 11 11 13 14 16 19 19 20 22 22 23 23 23 25 26 27 26 26 26 27 28 27 25 24 22 24 25 26 25 26 25 25 25 24 24 24 23 23 23 22 21 20
20 21 19 19 19 20 20 17 19 15 13 16 17 19 19 20 20 19 21 24 26 26 25 25 25 26 26 27 26 25 24 24 22 23 24 24 25 25 24 24 24 23 24 23 23 24 23 21 22
22 20 21 22 19 17 17 16 12 13 13 14 15 15 17 17 16 18 21 23 26 24 24 24 25 25 25 26 26 25 24 23 22 22 22 23 23 23 23 23 22 22 23 23 24 24 23 23 23
21 19 16 14 15 14 14 16 11 13 12 13 13 15 16 17 17 18 20 25 24 23 23 24 24 24 25 26 25 24 24 23 21 21 22 22 22 22 22 22 22 21 22 23 24 23 22 23 21
21 19 19 10 13 14 18 14 14 15 16 17 18 18 19 19 19 20 21 24 24 22 23 23 25 24 24 24 24 24 24 24 22 21 22 22 21 20 21 21 21 21 22 23 23 22 22 21 20
18 18 18 20 15 16 13 14 16 19 16 15 17 18 19 19 20 23 24 25 25 22 22 23 24 24 24 24 24 23 23 23 22 22 22 22 21 20 21 21 20 21 21 21 21 20 19 19 20
19 21 19 20 15 13 14 13 14 16 16 17 19 20 21 20 20 24 24 23 25 23 22 22 23 24 24 24 24 23 23 22 22 22 22 22 21 21 21 20 20 20 20 20 19 19 19 18 19
19 20 20 19 23 17 16 19 20 19 16 16 20 22 22 21 19 21 25 24 24 24 23 23 22 23 24 24 24 24 24 22 21 21 21 22 21 21 20 20 19 19 19 18 17 17 18 18 19
22 23 22 19 18 19 18 19 24 23 24 23 26 27 24 19 19 20 22 25 25 24 24 24 23 23 23 24 24 24 23 23 21 20 20 21 21 20 20 19 18 17 17 17 16 17 18 18 17

GFSSGP_sfc_dewp_012.txt.gz
Dewpoint
53 48 47 42 29 30 26 24 27 22 28 34 26 27 28 29 31 25 48 57 60 61 65 68 70 71 71 71 71 70 70 71 70 70 70 69 69 68 67 67 67 68 68 67 65 64 64 64 64
46 46 43 37 31 21 16 29 25 23 23 28 28 29 32 27 39 44 51 58 61 63 65 66 69 71 71 71 71 71 71 70 69 68 67 67 68 67 65 65 64 64 65 64 62 60 60 60 60
44 42 39 33 28 21 22 22 21 23 26 26 34 37 34 27 39 45 52 57 61 62 64 65 69 70 70 71 71 71 71 70 69 67 66 64 64 63 63 62 62 63 62 60 59 57 56 56 56
40 35 31 31 29 30 25 25 20 24 30 26 29 23 25 31 38 43 51 59 60 61 62 65 68 69 69 68 68 68 68 68 65 63 64 64 63 63 60 59 58 59 58 57 56 55 54 53 53
36 32 24 25 24 24 25 25 20 23 23 24 29 26 25 30 39 45 54 58 59 58 60 63 68 68 67 68 67 67 66 66 64 63 64 63 62 59 58 56 56 56 55 54 53 53 54 54 52
31 30 25 21 22 24 25 22 24 24 23 23 31 30 23 34 40 45 55 56 57 57 58 61 65 67 65 67 67 67 66 65 65 64 62 61 58 56 55 54 54 54 54 53 53 53 52 51 51
31 29 27 24 23 24 24 24 23 23 25 22 30 30 25 29 37 48 53 53 54 56 57 58 61 62 63 65 66 65 65 64 64 63 60 58 56 55 54 53 53 53 53 53 50 50 49 50 48
34 29 27 25 21 20 24 22 20 21 20 25 25 21 23 35 42 49 50 51 52 54 55 56 57 59 59 60 63 64 64 64 62 61 59 58 56 55 54 55 54 53 53 50 49 47 47 47 46
30 21 19 19 20 20 24 24 30 29 27 25 25 25 26 35 44 47 46 48 49 51 53 53 54 55 56 56 58 61 62 61 59 58 56 52 46 47 47 49 54 51 50 49 46 44 44 43 43
31 21 18 19 21 21 21 22 23 31 22 20 22 24 31 34 41 45 45 48 48 50 51 52 52 53 53 54 54 54 55 54 52 50 48 43 42 43 45 49 52 50 49 45 44 42 40 34 30
31 26 25 24 25 27 24 23 22 22 21 21 20 21 27 32 36 43 44 47 48 50 51 51 51 50 50 50 50 50 50 49 48 46 42 39 38 43 43 41 39 38 39 34 33 30 29 28 29
32 31 28 28 27 28 25 25 23 21 24 22 22 22 26 30 33 37 40 42 45 47 49 50 50 49 48 48 49 49 47 45 44 42 39 36 37 39 38 34 31 29 30 28 29 29 28 27 27
30 30 30 30 30 29 29 28 27 24 24 25 24 23 23 27 30 32 35 37 39 43 47 48 48 49 48 46 47 46 46 44 42 39 39 36 37 35 34 32 30 28 28 27 26 26 26 25 25
26 27 27 27 27 28 27 24 31 24 25 23 24 25 24 25 27 29 30 30 31 34 42 46 46 48 47 45 45 46 45 42 39 37 37 35 36 34 33 31 29 27 27 26 26 24 23 24 24
27 24 22 23 24 26 27 24 24 24 24 22 21 22 24 26 26 27 28 29 29 29 31 42 45 46 45 45 43 44 43 40 38 37 36 35 34 32 31 31 28 26 26 26 26 24 23 22 22
20 25 18 16 25 22 20 14 14 15 20 20 21 21 22 23 26 26 27 28 29 29 27 31 40 43 43 43 40 40 40 39 37 36 35 35 33 31 30 30 28 27 26 25 24 22 21 21 21
20 17 16 18 20 20 22 18 18 21 22 21 21 21 21 21 22 23 26 27 28 28 28 27 33 39 41 41 38 37 36 37 36 35 34 34 32 31 30 29 28 27 26 24 23 22 19 18 20
15 17 18 16 15 20 21 22 21 23 22 22 21 21 20 21 22 21 23 26 27 28 28 27 29 33 37 38 35 34 34 34 34 33 32 32 32 30 29 28 27 27 25 24 22 21 25 23 20
15 14 14 16 17 18 16 16 17 18 21 19 18 20 21 22 23 23 23 24 27 27 27 26 27 29 33 34 33 32 32 33 33 32 31 30 30 29 28 27 26 26 25 24 20 22 21 22 22
21 19 18 19 20 19 19 18 18 19 19 18 19 19 19 19 19 20 21 24 27 26 26 27 27 28 31 32 32 31 32 31 31 32 29 29 29 28 27 26 25 25 24 23 22 23 23 23 22
20 19 17 17 20 20 19 17 19 19 20 20 20 20 20 20 20 20 21 23 25 27 26 27 27 27 29 31 30 27 26 26 28 29 28 27 28 28 26 25 25 24 24 22 22 22 21 20 22
17 20 20 20 19 16 18 12 13 15 14 16 17 17 18 19 20 21 22 23 24 25 27 28 28 27 28 30 29 27 27 26 27 28 30 28 27 26 26 25 25 24 24 23 22 22 20 21 18
20 21 20 19 20 20 19 15 18 15 14 14 15 17 18 18 19 18 18 19 24 25 27 28 27 27 28 29 29 28 27 27 26 27 28 28 26 26 25 25 24 23 23 23 22 23 21 19 21
22 22 21 22 19 17 17 14 12 13 12 14 13 14 15 16 18 19 20 21 23 26 26 26 26 27 28 28 28 27 26 25 25 25 27 27 26 25 24 24 23 22 23 22 22 23 22 21 21
21 18 15 14 16 15 15 16 12 18 14 14 15 14 16 19 20 20 22 24 24 24 24 25 26 26 27 28 28 27 26 25 24 24 25 25 25 24 23 23 22 22 22 22 23 23 22 22 21
21 19 19 13 14 17 18 16 19 16 16 16 15 17 18 20 21 22 24 24 25 24 24 23 26 25 26 27 27 27 26 26 24 24 24 24 24 24 23 22 21 21 22 22 23 23 23 22 22
17 18 20 21 19 17 17 17 18 20 18 16 16 18 20 21 22 21 23 24 24 24 23 23 24 26 25 26 26 26 25 25 24 23 24 24 23 22 22 21 21 21 21 21 22 22 21 21 21
19 20 19 21 17 15 15 15 16 19 19 20 19 19 23 26 26 25 22 24 24 25 23 23 24 25 25 26 26 25 25 25 24 23 23 23 23 22 22 21 20 20 20 21 21 21 21 20 20
25 21 20 19 23 21 20 19 20 20 22 21 19 22 26 27 26 24 27 28 28 26 24 24 23 24 25 25 26 25 25 24 24 23 23 23 23 22 22 21 20 19 20 20 20 19 19 19 19
23 26 24 21 20 20 20 21 27 24 23 24 25 28 30 31 30 29 29 30 29 30 32 30 26 25 25 25 25 25 25 24 23 23 22 23 22 22 21 20 20 19 18 19 19 19 19 19 18

GFSSGP_sfc_dewp_015.txt.gz
Dewpoint
51 49 48 44 34 33 28 27 28 27 26 27 28 29 30 29 30 26 47 57 60 60 65 70 71 71 72 71 71 71 70 70 70 70 70 69 69 69 68 68 68 69 68 67 65 64 64 64 65
46 46 45 39 31 23 17 27 29 27 27 30 29 31 29 28 35 41 51 56 60 61 66 69 70 71 71 72 71 71 70 71 71 70 69 69 68 67 67 66 66 66 65 65 62 61 61 60 61
44 42 40 35 29 20 20 25 24 25 28 29 29 30 29 30 35 43 51 58 61 62 66 68 70 71 71 71 71 71 71 71 70 68 67 66 65 63 63 63 64 65 63 61 59 58 57 57 56
41 37 33 33 30 30 26 27 22 24 27 28 28 24 25 32 37 42 51 58 62 63 65 67 70 71 71 71 71 71 71 71 69 68 65 65 64 63 62 60 62 61 60 58 56 55 55 55 54
37 33 27 27 26 26 27 28 25 24 26 26 28 25 25 33 39 45 54 59 61 62 64 67 69 70 70 69 70 71 70 69 66 65 63 66 63 62 60 59 59 58 56 55 54 55 55 53 53
33 32 27 23 21 24 26 27 24 25 26 25 26 27 27 34 38 44 55 59 60 61 62 65 66 68 68 69 69 69 68 68 65 64 65 64 62 60 58 57 56 56 55 54 55 54 53 52 51
33 31 26 26 24 26 26 25 24 24 26 23 26 26 27 26 35 47 55 57 58 60 61 62 65 66 64 66 67 67 67 67 66 65 65 63 61 58 56 56 55 55 54 54 53 52 52 50 49
35 32 29 27 24 22 25 24 23 23 22 26 27 24 24 31 43 50 54 55 56 57 59 60 62 63 63 64 64 65 65 65 65 65 63 60 59 58 57 57 56 55 55 52 51 50 50 49 47
33 25 23 22 22 19 24 22 23 24 22 24 26 26 27 37 47 49 52 53 54 54 56 58 59 61 61 62 62 62 63 63 63 61 59 57 54 53 53 54 57 54 53 50 49 48 47 45 44
32 26 21 20 20 22 23 22 24 24 23 22 23 25 31 37 44 46 48 50 52 53 54 55 57 58 58 58 60 62 62 61 59 57 54 50 50 49 48 52 55 55 52 48 46 44 41 33 29
33 28 26 22 20 25 27 25 24 23 25 25 24 24 27 33 39 44 45 48 49 52 53 54 55 56 57 56 57 57 57 57 55 53 49 47 46 47 48 48 46 46 45 42 40 34 30 32 29
30 31 28 30 29 29 27 28 25 23 26 27 25 25 26 29 32 38 43 45 47 49 51 53 53 54 55 54 55 55 55 53 51 50 47 44 43 45 45 44 42 41 38 35 32 32 32 30 29
32 31 30 31 30 30 30 29 29 26 25 26 26 26 25 26 29 33 39 43 45 46 49 51 52 53 53 52 53 53 53 52 50 47 45 42 40 43 42 40 35 33 31 30 30 29 28 29 27
28 29 27 27 27 28 27 24 27 24 26 24 24 24 26 26 26 29 33 35 39 42 45 49 51 52 52 52 52 52 51 50 47 46 44 40 39 40 40 35 31 29 29 29 29 27 26 27 27
28 24 23 23 24 25 28 24 24 24 25 24 22 21 23 25 27 26 28 31 33 36 39 46 49 50 51 51 51 51 50 47 47 45 42 39 38 37 36 34 31 28 29 29 28 26 26 24 23
22 23 20 19 25 23 24 16 17 17 17 17 19 18 21 22 24 26 27 28 31 33 33 39 45 48 50 50 50 49 49 47 46 43 41 39 37 36 34 33 30 29 28 27 26 24 23 23 22
22 18 18 19 22 21 23 20 20 20 21 20 20 20 20 21 22 24 27 28 29 31 31 32 41 45 47 49 49 48 47 46 45 41 39 38 36 35 33 33 31 29 27 26 24 22 21 21 22
16 17 18 17 15 20 21 22 21 22 21 20 19 20 21 22 22 22 25 27 28 30 31 31 33 41 45 46 46 44 42 44 42 40 38 37 36 34 33 32 31 29 27 26 25 24 24 23 21
17 14 14 15 17 19 17 17 17 19 19 19 18 18 19 20 22 25 27 28 29 30 30 30 30 35 41 43 42 39 39 40 38 39 38 36 35 34 33 31 29 28 27 26 24 24 24 24 23
21 20 18 19 20 20 19 18 18 18 19 19 19 19 21 21 21 23 24 26 27 28 30 30 29 31 38 40 40 38 39 38 38 37 36 35 35 33 32 31 29 28 26 26 25 26 24 23 23
20 19 17 17 20 20 19 18 20 18 22 22 22 22 22 22 21 21 22 24 28 28 30 29 29 30 33 36 37 30 32 31 33 33 33 33 34 34 31 30 29 28 26 25 25 26 26 22 22
19 21 20 20 19 15 19 12 17 16 16 19 19 18 18 20 21 21 22 23 24 28 31 30 31 30 32 34 35 33 32 31 32 33 33 32 33 32 31 30 29 27 26 26 25 24 24 24 20
21 21 20 21 20 19 18 15 16 16 15 15 17 20 22 25 22 22 23 25 25 28 29 30 30 30 31 33 33 33 33 32 31 32 33 32 32 32 30 29 28 27 26 26 25 25 24 24 23
22 21 20 21 19 16 17 16 16 14 14 15 17 18 20 22 23 24 24 27 26 28 28 29 29 29 30 32 33 32 32 31 30 31 31 31 30 29 29 28 27 26 25 25 25 25 25 23 23
23 19 17 16 17 17 16 16 16 15 16 17 17 18 18 22 23 24 24 25 26 27 27 27 28 28 29 31 31 31 31 30 29 30 31 30 28 27 27 27 26 25 24 25 24 24 24 23 22
22 20 21 20 17 20 19 19 21 19 19 19 19 19 21 26 25 25 26 28 27 27 25 25 27 27 28 28 29 30 30 29 28 29 29 29 29 28 27 26 25 25 24 23 23 23 23 23 22
20 18 21 22 24 19 19 20 24 22 19 20 21 23 28 28 29 29 29 29 30 30 28 26 25 27 27 27 28 28 28 28 28 27 28 28 28 27 27 25 24 24 23 23 22 22 22 22 22
20 21 20 21 19 19 19 20 20 22 23 23 29 30 29 27 27 28 28 28 28 30 30 30 28 26 26 27 27 27 28 28 27 26 26 27 27 27 26 25 24 23 22 22 22 21 22 22 22
21 20 20 20 27 24 20 21 24 26 29 30 30 29 26 24 24 26 26 27 27 28 28 28 30 28 29 29 28 27 27 27 27 26 26 26 26 25 25 24 24 22 22 21 21 20 21 21 22
27 26 25 27 27 28 27 26 28 29 31 29 24 22 20 20 21 24 27 27 26 27 28 28 28 29 29 29 29 28 27 26 26 25 25 25 25 25 24 23 23 22 21 21 20 21 22 22 20

GFSSGP_sfc_dewp_021.txt.gz
Dewpoint
51 43 42 42 32 26 20 22 24 25 24 25 25 25 24 25 21 26 48 51 53 56 63 69 72 72 72 72 72 71 70 70 70 71 71 70 70 70 70 70 70 69 68 67 66 65 65 66 64
39 39 41 31 25 17 12 21 22 24 24 26 26 26 25 22 27 31 42 53 53 55 63 67 71 72 72 72 72 71 70 70 71 71 70 70 69 69 69 68 68 67 66 65 64 63 62 61 60
41 37 32 28 22 16 18 20 22 22 25 25 25 28 25 23 28 34 48 53 53 55 63 66 71 72 72 72 72 71 70 71 71 71 70 70 69 67 66 65 65 65 65 63 61 60 59 58 57
36 34 29 22 19 18 18 18 21 22 24 25 25 23 25 28 32 40 49 54 53 54 61 68 71 72 72 72 72 71 70 70 71 70 69 69 66 64 63 62 65 64 63 60 59 57 57 55 53
35 28 23 21 17 15 16 19 23 23 23 23 24 20 22 29 34 41 49 54 55 54 59 66 70 71 72 72 72 71 71 71 71 70 69 67 66 64 62 62 62 62 60 58 56 56 54 53 52
28 26 20 16 13 13 18 24 24 23 22 22 23 22 22 32 33 36 46 53 55 54 58 60 67 69 70 71 71 71 71 71 71 70 67 67 66 63 62 61 61 60 58 56 56 54 53 52 51
29 25 19 19 16 16 18 23 21 19 18 18 22 19 19 27 32 39 45 50 54 56 58 61 64 67 67 69 70 70 71 71 70 67 66 66 65 63 63 60 60 58 56 56 56 54 53 51 49
31 25 20 18 11 14 18 22 23 19 17 24 23 18 17 33 37 42 46 49 53 56 58 60 61 63 66 68 66 68 69 68 68 66 65 64 63 63 62 60 59 56 55 55 54 53 51 49 46
34 23 19 18 16 11 19 19 21 22 21 19 23 24 24 33 39 43 47 50 53 55 58 60 61 62 63 64 65 65 65 65 65 64 63 61 61 60 58 57 59 57 57 54 53 52 50 47 44
29 26 20 18 14 14 13 17 19 19 19 17 18 23 26 27 33 37 39 42 49 53 56 59 60 61 62 60 62 66 66 66 65 64 63 61 60 59 54 54 58 59 57 54 52 51 48 44 34
30 25 20 20 21 19 19 19 19 21 19 16 15 16 19 23 28 31 34 35 38 47 52 56 58 60 62 62 62 62 64 65 65 65 64 62 60 57 54 54 54 56 53 49 49 45 35 33 33
30 25 27 26 26 26 24 21 21 23 22 21 21 22 22 24 24 25 28 31 35 39 45 52 55 58 60 61 61 62 62 64 64 63 63 62 60 57 54 52 53 56 52 50 48 42 40 36 32
30 26 23 25 26 29 28 25 22 22 21 21 21 21 21 23 25 25 27 30 34 37 42 48 55 56 58 60 60 60 60 61 62 62 62 61 58 56 53 51 52 53 50 47 44 39 37 37 32
22 27 25 23 23 24 25 24 22 18 18 17 19 17 17 19 20 23 26 27 30 36 41 44 50 55 55 58 60 59 60 60 61 60 60 60 57 54 51 50 51 50 48 44 38 36 36 36 36
26 23 21 20 19 21 24 21 20 19 17 17 18 15 15 16 17 20 22 24 26 32 37 42 46 51 54 56 58 59 59 58 59 60 59 58 57 53 49 48 49 48 46 41 37 34 35 33 31
22 21 20 18 21 22 24 16 16 17 16 15 15 15 18 17 16 18 21 22 24 28 32 36 41 46 52 54 56 57 57 58 58 59 58 57 55 51 48 46 46 45 40 36 34 32 32 31 30
21 18 19 19 18 20 23 18 18 19 19 18 19 17 17 18 19 22 24 25 26 27 28 31 37 42 48 52 53 55 56 56 56 57 57 56 54 50 45 44 44 42 36 34 31 31 30 31 30
20 19 18 17 17 20 21 20 20 20 19 18 17 18 19 20 21 24 26 29 29 30 31 31 33 35 42 47 51 53 54 55 55 55 54 54 52 49 45 42 42 39 36 33 33 32 31 31 30
20 19 18 20 22 22 21 20 19 18 18 18 18 19 19 21 24 26 29 31 31 32 32 31 32 33 36 42 47 50 51 53 53 53 53 53 51 49 45 41 39 37 35 34 33 32 32 32 29
21 20 20 21 21 21 21 19 19 20 20 20 20 20 21 22 25 26 28 30 30 32 33 32 31 32 33 38 45 45 46 48 50 51 52 51 51 48 45 42 39 38 35 34 34 33 31 32 30
21 21 20 20 22 20 19 19 22 20 23 21 19 22 25 26 26 27 29 29 31 31 32 32 32 32 33 34 39 42 45 42 44 47 49 50 50 49 45 42 39 38 35 33 34 34 32 30 31
21 22 22 20 20 19 22 19 22 22 21 19 21 25 27 27 29 30 30 31 31 32 33 31 32 32 33 35 38 40 40 38 38 39 44 46 48 47 45 43 40 38 35 34 36 33 32 32 30
21 24 20 21 21 23 21 20 21 22 20 18 23 27 29 29 29 29 30 31 31 33 33 33 30 31 33 34 36 36 37 38 37 36 39 43 45 45 44 43 41 39 36 35 35 34 34 32 31
23 21 21 22 23 23 22 20 20 18 16 19 24 27 29 29 29 28 29 30 30 33 32 32 31 30 32 32 32 34 35 35 36 37 39 40 41 41 42 42 41 39 37 36 36 35 34 32 31
22 21 23 22 25 26 22 24 23 23 18 20 25 28 28 29 28 27 27 27 28 29 31 29 29 30 31 33 31 31 31 33 33 35 36 36 37 38 37 39 40 38 37 36 36 35 33 33 32
26 24 25 21 22 24 30 26 25 24 24 27 28 28 29 28 29 28 26 26 26 27 27 27 28 25 27 29 31 31 31 31 31 31 32 33 34 35 37 36 38 38 36 35 35 35 34 33 32
24 23 25 27 30 27 25 25 27 27 27 28 28 27 26 27 28 28 26 24 25 25 24 26 25 26 24 26 28 30 31 31 30 30 31 32 32 31 33 35 35 36 35 35 33 34 33 32 32
22 24 26 25 25 22 21 22 19 23 26 29 28 25 24 25 25 25 26 24 23 24 24 23 22 22 22 24 26 26 28 29 30 31 32 32 31 31 32 33 34 34 34 34 33 33 33 32 30
23 23 24 24 27 25 22 20 27 28 29 28 25 24 22 21 20 22 25 21 18 18 19 21 21 21 20 22 25 26 26 26 25 25 28 31 31 31 31 31 33 33 33 33 32 31 31 30 30
28 28 27 26 25 25 25 27 31 31 29 26 23 23 22 22 17 15 22 20 15 14 15 14 16 18 20 20 24 23 22 24 22 22 24 29 30 31 30 30 30 31 31 31 31 30 29 29 28

GFSSGP_sfc_dewp_024.txt.gz
Dewpoint
55 49 43 44 39 35 28 28 26 26 26 26 26 25 25 25 22 31 48 52 53 60 66 70 72 72 72 72 72 72 72 71 70 70 70 71 70 70 71 70 70 69 68 67 66 65 65 65 63
45 38 44 40 32 26 20 21 25 26 26 27 26 26 26 23 27 42 48 53 53 59 66 69 71 72 72 72 72 72 72 72 70 71 71 70 70 69 70 70 69 68 67 66 65 64 64 61 61
45 36 40 35 28 22 22 22 22 24 25 26 25 28 26 28 30 38 51 54 53 56 67 68 71 72 72 72 72 72 71 72 72 71 71 70 69 69 67 67 66 66 65 64 62 61 60 59 57
41 39 34 26 24 19 19 19 21 22 25 25 24 23 26 29 35 45 51 55 52 55 65 68 71 72 72 72 72 71 71 72 72 72 71 70 69 67 64 63 65 65 64 62 60 59 58 56 54
40 36 29 26 22 16 16 18 23 24 24 23 24 22 23 32 41 44 51 55 53 55 62 69 70 72 72 72 72 71 71 71 72 72 71 70 68 65 63 62 63 64 62 59 58 58 55 54 52
35 29 26 24 18 15 19 24 24 22 22 23 23 22 23 34 35 39 49 53 55 54 60 68 68 70 71 72 72 71 71 71 72 71 70 69 68 66 63 62 62 62 60 57 58 55 54 53 51
36 33 26 22 19 21 20 23 21 19 17 18 22 20 23 31 37 40 46 50 54 55 58 62 68 68 67 69 70 70 71 71 71 70 69 68 67 66 64 62 62 60 58 57 57 54 53 52 49
37 30 22 21 19 19 21 22 22 20 18 24 23 20 35 35 39 42 48 50 53 55 58 59 64 67 68 68 67 68 69 69 70 68 65 65 64 63 62 61 62 59 57 57 56 54 53 50 47
38 29 24 22 22 18 21 20 22 21 21 22 23 24 25 37 40 42 49 49 53 54 57 60 61 63 65 67 67 66 67 67 66 64 62 62 61 61 60 59 60 59 58 56 55 53 52 49 44
34 32 27 21 19 19 18 18 19 18 20 20 19 21 26 32 36 38 40 45 50 53 56 59 60 62 63 64 65 67 67 66 65 63 62 62 60 60 59 56 59 60 59 57 55 53 50 47 38
34 30 26 22 24 26 24 23 20 18 21 22 19 21 23 25 27 33 34 35 39 50 54 57 59 61 62 62 63 66 66 66 65 64 63 61 60 58 56 54 55 55 55 52 51 49 44 38 33
28 29 27 29 27 29 27 27 25 23 22 24 23 23 23 23 24 26 28 32 34 37 49 55 57 60 61 62 61 62 63 63 64 65 63 62 60 57 54 54 53 54 51 49 48 44 39 34 32
26 29 28 27 27 26 27 28 28 25 23 22 22 22 23 21 23 26 28 30 33 36 39 50 55 57 59 61 61 61 61 62 62 63 63 61 60 56 53 52 53 54 51 49 46 39 37 35 31
26 28 26 25 24 24 24 24 25 23 23 20 19 20 19 19 20 21 25 27 29 34 37 42 53 55 57 59 60 60 60 60 62 62 61 60 59 56 52 50 51 52 49 47 41 38 37 35 33
27 25 24 22 23 23 25 23 22 22 19 17 17 17 18 19 20 18 23 27 28 30 36 40 45 54 55 57 59 59 59 59 60 61 60 59 58 55 51 49 50 50 47 43 37 36 36 34 33
24 23 22 22 22 27 22 19 21 19 20 20 20 19 20 21 20 26 28 29 29 30 31 39 40 46 53 54 56 58 58 58 58 59 59 58 57 54 50 48 49 48 44 39 36 34 34 32 31
23 19 20 22 23 24 23 21 22 22 21 21 21 20 20 20 26 29 30 31 32 33 32 34 38 43 47 53 54 56 57 57 57 58 58 57 56 53 49 46 47 46 41 36 34 32 32 31 30
21 21 21 21 22 23 23 23 24 23 22 20 19 19 20 25 27 29 30 31 33 33 32 32 33 36 44 47 50 53 55 56 56 56 56 56 55 53 47 44 45 43 38 35 34 31 32 31 31
24 22 21 22 23 23 23 23 22 22 21 20 20 21 24 25 28 29 30 31 32 32 32 32 33 34 37 43 46 49 51 53 53 54 54 54 53 51 47 43 42 39 36 34 32 32 30 31 28
24 23 21 22 23 23 23 22 21 20 20 22 22 24 25 26 28 30 31 32 31 32 31 32 33 33 35 38 44 45 47 48 51 52 52 52 52 50 47 43 40 37 35 34 33 32 32 32 29
23 23 22 22 23 21 21 22 23 24 23 24 26 26 28 29 29 30 30 31 32 32 31 31 32 33 35 37 40 42 43 42 41 45 47 49 50 50 47 44 40 38 35 34 33 32 29 31 29
22 24 24 24 21 18 24 20 23 23 24 26 27 28 29 29 30 30 30 31 31 32 32 31 31 32 33 36 39 39 40 38 38 40 44 46 47 47 47 44 41 39 37 35 34 33 30 30 28
25 25 23 22 21 22 22 22 22 24 22 25 28 29 29 29 29 29 29 30 32 32 32 31 31 32 32 33 34 36 36 37 38 38 37 39 43 44 45 44 42 40 38 35 35 33 32 31 29
25 22 22 22 21 23 23 22 21 19 20 24 27 29 29 28 27 27 28 28 28 30 30 28 28 30 32 32 32 32 32 33 34 35 36 38 39 41 41 42 42 41 39 36 35 34 33 32 31
24 22 23 22 22 23 26 24 23 21 20 24 27 28 29 28 27 26 26 27 28 28 29 26 27 26 29 31 32 31 32 32 32 32 33 33 35 37 38 38 39 40 39 37 36 35 33 33 31
26 25 25 17 17 20 27 24 25 26 27 28 29 29 28 28 28 26 26 26 26 26 26 26 27 25 26 27 29 30 31 32 32 31 32 32 33 33 34 35 36 38 38 37 35 35 34 33 33
25 24 26 24 22 21 23 23 25 28 28 28 27 26 27 27 28 27 25 24 25 25 24 24 23 24 23 26 27 27 27 26 27 30 32 31 31 30 31 32 33 34 36 36 35 33 33 32 32
24 25 25 27 24 17 20 20 19 28 28 28 25 25 24 23 23 26 23 21 21 22 23 22 22 22 22 25 26 25 26 25 24 25 26 29 31 31 31 31 31 32 33 33 33 32 32 32 31
23 24 25 25 25 20 18 18 28 29 29 25 24 23 22 20 18 22 24 18 17 17 17 18 20 22 21 23 25 24 24 24 23 23 24 27 28 29 31 30 30 30 31 31 31 31 31 30 30
27 26 27 25 22 24 24 23 31 29 27 25 24 24 23 23 16 14 21 19 14 15 15 14 17 20 20 20 23 23 23 25 23 21 22 25 26 27 28 29 29 29 29 30 30 30 30 29 29

GFSSGP_sfc_dewp_027.txt.gz
Dewpoint
55 46 48 40 30 30 24 24 24 24 25 26 26 25 24 25 22 25 48 52 60 66 69 71 72 73 73 73 72 72 72 71 70 70 70 70 70 70 71 70 70 69 67 67 66 66 65 65 63
46 43 41 37 27 22 18 22 23 24 25 25 26 26 26 23 33 45 48 53 60 66 68 70 71 72 73 72 72 72 72 72 70 70 70 71 70 71 70 70 69 68 66 66 66 65 63 62 61
45 42 35 31 26 17 19 21 21 23 25 25 24 27 25 27 34 44 52 54 57 66 68 70 71 72 72 72 72 72 72 72 72 71 71 70 70 70 69 68 68 67 66 64 63 63 61 59 57
39 37 31 22 22 18 15 18 22 24 25 25 24 22 25 30 36 47 53 54 53 65 67 70 71 73 72 72 72 72 72 72 72 72 71 70 69 68 67 67 67 66 65 63 61 60 58 56 54
38 33 24 25 20 22 19 22 23 24 23 24 24 21 22 35 45 50 53 54 52 59 66 69 71 72 72 72 72 72 72 72 72 72 72 71 69 66 64 64 64 66 63 61 60 58 56 53 51
32 25 22 21 18 15 23 23 22 22 21 23 22 24 24 36 38 46 53 54 53 56 67 69 68 70 71 72 72 71 71 71 72 72 72 71 68 65 64 63 63 63 62 60 60 56 54 53 50
36 28 23 26 18 17 23 22 20 19 17 21 22 19 30 31 38 41 50 53 55 55 66 68 69 69 68 69 70 70 71 71 71 71 71 69 68 66 64 64 63 63 60 59 58 55 54 52 48
32 26 28 26 17 17 21 20 21 20 18 23 23 17 28 32 39 41 45 49 53 55 59 66 67 68 68 69 67 68 69 69 70 69 67 66 66 65 64 62 63 61 59 58 57 55 54 51 47
33 24 21 21 17 16 20 18 21 21 20 22 22 22 23 36 41 43 47 47 50 53 57 60 65 66 67 67 66 65 67 67 67 66 64 63 62 61 61 60 62 61 59 58 56 54 53 49 43
30 27 24 23 20 23 23 22 21 18 18 18 21 22 26 38 38 39 43 45 47 50 54 59 60 64 65 67 66 66 67 67 67 65 63 63 61 60 59 57 59 60 60 59 56 54 52 46 35
32 27 28 26 27 27 26 25 24 20 20 20 21 21 23 27 29 34 36 40 45 49 53 58 59 61 63 64 64 66 67 66 65 64 62 61 60 59 58 56 57 56 56 54 54 51 47 43 39
28 29 28 30 28 27 26 28 27 27 26 24 24 24 24 23 23 25 31 33 34 40 50 55 59 60 61 63 63 65 66 66 65 64 62 61 60 59 55 54 54 53 52 50 49 47 42 37 32
24 27 28 28 27 26 26 25 27 26 26 27 26 24 22 22 21 22 26 27 29 33 39 53 57 59 60 61 61 63 65 64 63 64 63 62 60 58 54 52 53 52 50 49 47 44 38 34 31
26 28 26 25 24 25 24 23 25 24 24 21 20 20 19 19 21 25 27 28 29 30 34 43 56 58 59 61 60 60 61 62 61 61 62 63 61 58 53 52 52 52 50 48 46 40 36 34 32
27 23 24 24 24 23 24 22 22 24 21 20 20 20 20 24 29 30 31 32 32 32 33 37 52 56 58 59 60 59 60 60 60 61 60 60 60 57 53 51 51 52 50 47 41 37 36 34 32
23 23 21 22 23 25 21 18 20 21 20 20 21 21 21 29 30 30 32 32 33 32 32 33 38 54 55 57 58 59 59 59 59 59 59 59 58 55 52 50 50 50 48 43 38 36 35 33 32
24 17 20 22 25 24 21 19 21 22 22 22 22 21 27 28 29 30 31 32 32 32 32 33 34 37 52 54 56 57 58 57 58 58 58 59 57 54 51 49 49 48 45 40 36 33 33 31 31
19 20 21 21 22 23 23 22 23 24 23 22 21 24 27 28 29 31 31 32 32 31 32 33 34 35 44 49 51 53 54 55 55 56 58 58 57 53 50 48 47 46 42 37 34 32 32 31 30
21 22 22 22 23 23 22 23 23 23 23 21 23 26 27 29 30 31 32 32 32 30 31 33 34 35 37 41 46 48 50 52 53 55 56 56 56 54 49 46 46 43 40 37 33 32 30 30 29
24 23 22 23 24 22 22 21 21 22 22 23 25 26 28 29 30 30 31 32 32 31 31 31 32 34 36 39 41 45 44 43 48 51 52 53 54 53 49 45 43 41 37 35 33 32 31 31 30
23 22 23 23 23 20 20 22 22 24 26 27 28 29 30 29 29 29 30 31 31 31 31 31 32 32 32 36 37 40 42 41 39 43 46 49 51 51 49 45 43 41 38 36 33 32 31 30 30
23 25 24 23 20 16 22 18 23 24 25 27 28 29 29 29 29 29 29 30 29 28 29 30 31 32 31 32 34 35 35 36 37 39 39 42 45 46 48 46 44 40 38 37 34 33 31 31 28
24 25 23 22 19 22 20 20 23 24 25 27 28 28 28 28 28 27 28 28 29 28 27 26 28 30 32 32 32 32 32 34 35 35 36 37 41 42 43 44 44 42 40 37 35 34 33 31 30
24 21 22 21 20 20 22 22 22 19 23 27 28 28 27 26 27 27 28 28 27 28 27 26 25 27 29 31 31 31 31 31 31 32 33 34 35 38 39 41 41 41 42 39 36 36 34 33 31
22 22 22 19 19 19 25 22 22 24 24 27 28 27 27 26 25 25 25 25 25 25 25 23 24 25 27 28 28 28 30 31 31 31 31 31 32 33 32 34 36 38 39 39 37 36 35 33 32
24 24 22 13 17 17 24 21 23 28 28 28 28 28 28 28 26 25 25 25 25 23 23 23 24 22 25 26 27 27 26 26 27 29 30 30 31 31 31 31 32 33 35 37 36 35 34 33 33
25 24 26 24 18 19 23 24 29 28 27 26 26 27 27 27 26 24 23 24 24 23 23 22 21 22 23 25 25 25 26 24 23 24 26 27 28 28 30 30 30 31 31 32 34 33 32 32 33
26 26 24 25 14 15 21 21 21 27 26 25 25 24 23 23 25 24 21 20 20 21 21 22 21 20 21 24 25 23 24 24 22 22 23 25 26 27 28 28 29 29 30 30 31 31 31 31 32
23 24 25 26 26 19 16 17 28 28 26 24 23 23 22 20 21 25 19 17 19 20 20 22 22 20 19 21 24 24 24 25 23 21 21 22 25 26 26 27 27 27 27 28 29 29 30 30 30
27 25 26 24 20 24 24 21 30 28 26 25 24 24 23 21 17 19 21 15 15 15 16 15 19 21 20 20 22 23 22 23 22 20 19 21 21 23 24 24 24 25 26 26 26 27 28 29 29

GFSSGP_sfc_dewp_030.txt.gz
Dewpoint
52 42 46 40 29 26 22 23 24 25 24 25 26 24 23 24 22 22 47 54 63 66 70 71 72 73 73 73 73 72 72 70 70 70 70 70 70 71 71 70 70 69 68 67 66 66 65 64 63
46 43 40 35 26 19 18 21 24 24 25 25 26 26 25 23 34 44 48 52 65 67 69 70 71 73 73 73 72 72 72 71 70 70 70 70 70 71 69 70 69 68 66 66 65 66 63 62 61
43 40 32 28 23 18 18 20 20 23 25 24 24 27 26 27 37 44 49 55 65 67 69 70 71 73 73 73 72 72 72 72 71 70 70 70 70 70 70 69 68 67 66 65 64 63 61 58 58
38 36 30 21 23 20 16 18 21 23 24 24 24 32 24 31 35 45 52 56 65 66 68 69 71 73 73 72 72 72 72 72 72 72 71 70 70 69 69 68 67 65 64 63 62 61 58 55 54
36 30 23 23 20 21 25 21 23 23 23 24 26 26 22 36 46 51 54 53 64 65 67 69 71 72 72 72 72 72 72 72 72 72 72 71 70 68 67 66 66 66 64 62 61 58 56 53 51
31 25 21 21 21 17 23 22 22 20 18 21 21 31 20 37 41 49 54 53 56 64 66 69 68 70 71 71 71 71 71 72 72 72 71 71 69 67 65 64 64 63 63 61 60 56 54 52 48
30 26 23 25 18 18 22 21 19 19 17 20 29 19 27 31 34 44 53 55 54 60 66 67 69 69 68 69 70 70 71 71 71 71 71 70 68 67 65 65 64 62 62 60 58 55 53 51 47
33 26 29 26 17 17 20 19 21 18 18 22 22 17 25 35 38 41 50 54 54 55 65 66 67 68 69 69 67 68 69 69 69 69 68 67 66 65 64 63 64 62 62 60 58 55 53 50 45
31 22 20 19 18 18 21 19 19 20 20 21 22 20 22 34 40 46 46 46 49 53 58 64 66 67 68 68 67 66 66 67 67 67 65 64 64 63 62 61 63 63 61 59 57 55 53 49 42
27 23 20 22 23 23 23 23 22 20 20 19 19 22 27 38 41 39 41 42 45 49 54 60 64 66 66 68 67 67 68 68 67 66 65 65 62 60 60 59 61 62 60 60 58 55 53 44 32
31 24 26 27 26 27 25 24 26 23 22 20 20 22 23 34 35 36 36 39 42 46 52 57 61 64 65 66 66 66 67 67 66 64 63 63 61 60 58 57 58 57 57 56 56 54 48 38 36
28 30 28 30 30 27 25 27 26 26 25 26 25 26 25 24 24 24 27 31 34 38 46 53 58 61 63 64 64 66 67 66 66 63 61 62 61 59 58 56 55 54 53 52 50 49 45 39 34
27 27 27 28 27 26 26 24 24 25 26 26 25 23 21 21 23 30 31 32 32 32 33 42 56 59 61 62 62 64 65 64 64 64 61 62 61 60 58 56 54 53 51 50 48 47 42 36 31
25 27 25 25 25 24 23 23 24 22 24 22 20 21 24 29 31 31 32 32 32 33 33 35 52 58 60 61 60 63 64 65 64 63 62 62 61 60 57 55 52 51 50 49 48 46 39 35 33
27 23 23 22 24 23 25 22 23 23 23 20 20 22 29 30 30 31 32 32 33 33 33 34 36 55 58 60 60 60 61 61 62 61 60 60 60 60 56 54 52 52 50 48 46 42 36 34 31
23 22 18 21 24 24 21 19 21 21 20 20 22 26 28 29 30 31 32 32 32 32 33 34 36 44 55 56 58 59 59 59 59 59 59 59 59 59 55 54 53 53 51 48 44 39 36 34 32
23 15 20 21 25 24 20 19 21 22 22 23 21 27 28 30 31 31 32 31 31 32 33 34 36 38 50 54 56 56 56 57 57 58 60 60 60 57 56 54 52 51 50 45 42 36 34 33 31
17 19 20 21 23 23 22 21 22 23 24 22 25 27 29 29 30 31 31 31 31 31 32 33 35 37 40 48 51 52 54 54 55 56 59 59 58 56 54 52 51 50 48 42 37 35 33 32 31
19 20 21 23 24 23 22 23 23 24 24 22 26 29 29 29 30 31 31 31 31 31 31 32 32 33 37 40 45 47 49 49 52 53 55 57 57 54 53 52 51 48 46 44 39 33 32 30 30
23 23 22 23 24 22 22 21 21 22 25 25 27 29 29 29 29 29 29 28 29 30 31 31 31 32 33 36 39 43 42 41 43 44 46 49 54 55 52 50 49 48 43 40 37 34 31 31 30
23 22 22 23 24 21 21 22 23 26 28 29 29 29 29 29 28 28 27 26 25 26 28 30 31 31 32 33 34 35 36 36 36 37 37 41 46 48 49 49 46 44 42 41 38 34 33 32 31
25 26 25 24 21 19 20 17 21 24 26 28 28 28 28 27 27 27 27 26 25 25 25 27 29 30 31 32 33 33 32 32 34 35 35 36 38 38 40 44 45 43 41 40 38 36 33 33 31
25 25 22 22 22 21 18 17 19 26 25 27 27 27 27 27 27 26 26 27 26 26 25 25 26 27 28 28 30 31 31 32 32 32 32 33 34 34 33 35 39 41 43 40 38 36 34 33 32
24 21 24 23 21 19 19 20 22 21 24 27 27 26 26 26 26 26 26 25 25 24 23 24 24 26 26 25 25 26 27 27 26 28 30 31 32 32 31 32 32 34 37 39 40 38 36 35 33
22 23 21 17 18 19 24 22 22 27 26 27 26 25 25 24 24 24 24 23 23 22 21 21 23 24 25 24 24 24 24 23 23 25 26 26 27 29 29 30 31 31 32 34 36 37 37 36 35
23 24 21 10 17 19 23 19 21 28 28 27 27 27 26 25 24 24 25 24 22 22 19 19 22 23 24 23 23 23 22 23 22 23 24 24 25 25 27 27 28 29 30 31 32 33 33 35 35
25 24 25 23 14 18 23 25 28 28 27 27 27 27 27 26 24 23 24 24 22 22 21 19 18 20 23 24 23 23 23 20 19 20 22 22 23 22 24 25 25 25 26 28 29 30 30 31 32
26 26 23 24 12 16 20 22 22 26 25 26 26 26 26 26 25 23 21 21 22 21 21 21 19 18 20 22 23 22 22 23 21 20 19 20 21 24 24 24 24 24 24 24 25 27 28 29 29
24 24 25 25 23 14 12 16 25 27 26 25 25 24 23 23 25 22 19 18 19 19 21 21 19 17 17 19 21 21 21 21 21 20 20 19 19 20 21 23 24 24 24 23 23 22 24 26 27
26 24 25 21 18 22 22 17 30 29 26 25 25 24 23 22 21 24 17 17 17 15 14 15 19 19 18 19 19 19 19 19 19 19 20 21 20 20 19 19 19 19 19 21 23 23 23 23 22

GFSSGP_sfc_dewp_033.txt.gz
Dewpoint
50 42 44 38 28 25 24 22 23 23 22 35 26 23 23 23 21 20 42 56 62 64 68 71 72 73 74 73 73 72 72 71 70 70 70 70 71 71 71 70 69 68 67 67 66 66 65 64 63
46 42 38 32 22 19 19 21 23 23 24 25 25 25 27 25 30 42 50 54 64 66 69 70 71 73 73 73 73 72 72 71 70 70 69 70 70 70 70 70 68 67 66 66 66 65 63 62 61
42 37 30 28 21 18 19 19 30 23 25 24 35 30 34 25 35 42 47 53 65 67 69 70 71 73 73 73 73 72 72 72 71 70 70 69 69 70 70 69 68 67 66 65 64 62 61 59 58
38 34 28 20 26 24 27 29 21 23 31 24 33 35 23 33 35 44 52 60 64 66 68 69 71 73 73 73 72 72 72 72 71 70 70 70 70 70 69 69 67 65 65 63 62 61 58 55 54
33 28 21 21 23 22 32 20 22 23 22 23 29 22 20 31 46 53 54 61 63 65 67 68 71 72 72 72 72 72 72 72 72 72 72 71 70 69 68 68 66 64 61 62 61 58 56 53 50
30 24 20 19 23 18 22 23 21 19 17 19 35 33 18 33 46 51 54 54 63 64 66 68 68 70 71 72 72 72 72 72 72 72 71 71 70 68 67 66 65 64 62 61 60 57 54 51 47
29 23 22 25 18 17 21 21 34 25 16 25 37 33 27 29 34 41 53 53 56 63 65 66 68 68 68 69 68 70 71 71 71 71 71 70 69 68 67 66 65 62 62 61 60 56 53 50 45
31 24 27 25 17 17 19 18 21 19 18 21 21 23 29 38 36 45 50 52 52 57 64 65 67 69 68 68 66 67 69 69 70 69 68 67 66 66 65 64 64 63 62 61 59 55 53 50 45
29 19 16 20 18 20 22 21 21 21 23 20 22 32 21 32 40 45 45 45 49 53 59 63 65 67 69 69 67 65 66 67 67 66 65 64 64 63 62 62 63 64 63 61 59 56 53 49 43
25 18 15 20 24 25 24 23 23 21 21 20 19 21 23 33 43 42 40 40 43 47 53 60 63 65 67 67 68 68 68 68 67 67 65 65 64 63 61 59 62 63 62 62 59 56 54 44 31
30 20 24 26 24 26 25 24 25 23 21 21 20 23 25 27 32 32 31 32 37 41 46 54 60 63 66 67 67 67 65 66 67 66 65 64 63 61 60 59 59 58 57 57 57 54 48 34 29
32 29 28 30 29 27 25 26 25 25 23 25 27 26 26 23 28 31 32 32 32 32 33 37 53 61 62 65 66 66 66 65 65 64 63 63 62 60 59 58 57 56 54 53 52 50 47 41 36
27 26 26 28 27 26 26 24 24 23 24 25 22 24 29 30 31 32 33 33 33 33 33 34 37 56 61 61 62 65 64 66 65 65 63 60 61 60 59 58 56 56 54 51 49 48 46 39 33
24 26 25 25 25 25 23 23 24 21 23 22 22 28 30 30 31 31 31 32 32 33 33 35 36 45 58 61 60 63 64 64 64 63 63 60 59 59 59 57 56 55 53 50 49 47 45 38 33
26 23 22 21 23 22 24 22 22 22 23 21 23 29 30 30 31 31 31 31 31 32 34 35 38 43 56 58 58 59 63 63 63 63 62 60 60 60 59 57 55 54 52 50 48 45 41 36 32
22 21 18 17 24 24 21 20 22 22 21 23 26 28 29 30 31 31 31 31 31 32 33 35 37 40 53 56 57 58 59 59 59 60 61 61 60 60 58 56 55 54 52 51 48 45 40 36 33
21 13 18 20 24 23 20 20 22 23 23 22 27 28 29 29 30 30 31 31 31 32 32 33 35 38 43 53 55 56 56 57 58 59 60 60 60 60 58 56 55 53 53 51 48 42 40 36 33
15 19 19 18 22 22 22 21 23 24 24 24 28 29 29 29 29 30 30 30 30 31 31 32 33 35 39 44 48 47 47 49 51 51 54 58 59 57 56 55 54 53 52 48 45 41 36 34 33
17 19 19 21 24 23 23 22 23 23 24 27 28 28 29 29 29 28 27 27 29 30 30 31 31 33 35 39 43 43 39 40 39 41 44 48 51 54 54 54 53 51 50 49 45 39 37 33 32
22 21 21 23 25 23 23 22 22 27 27 27 28 28 28 28 27 26 25 25 26 27 29 30 30 31 33 34 37 40 39 38 36 36 37 39 42 45 48 48 47 48 47 44 42 39 36 35 32
24 23 22 22 24 22 22 21 23 27 29 29 29 28 28 27 26 26 24 25 24 25 27 28 29 30 31 33 33 33 34 33 32 33 34 35 35 34 37 41 45 44 44 44 42 39 37 37 33
25 26 24 25 21 20 23 18 19 25 27 28 27 27 26 26 26 26 25 23 24 24 25 26 26 25 27 31 31 31 30 29 31 32 32 33 33 31 32 33 36 39 42 42 40 38 36 34 35
26 26 24 21 20 21 19 18 18 26 26 26 27 26 26 26 25 25 24 23 23 23 24 25 24 24 23 24 25 25 23 27 25 25 25 27 29 28 28 30 32 32 34 36 38 39 37 35 33
25 22 24 24 21 20 20 19 19 23 24 26 26 26 26 26 25 24 24 23 21 21 22 23 22 23 23 21 21 20 21 20 20 22 23 24 25 25 25 26 27 29 30 32 33 35 36 37 36
23 23 20 18 18 20 23 21 20 26 28 27 26 25 25 25 24 23 22 21 19 18 20 21 22 22 22 20 19 19 20 19 19 21 22 22 23 22 23 25 25 25 26 27 30 32 32 34 34
22 23 22 11 15 18 23 22 21 28 27 27 25 25 24 24 24 24 23 21 19 17 17 19 22 22 22 21 21 20 19 19 19 20 20 21 22 22 23 23 23 24 24 24 25 27 28 30 31
24 22 24 22 12 17 22 23 27 27 27 26 26 26 25 24 24 24 24 21 20 18 16 15 18 21 22 21 20 21 20 19 18 18 20 20 20 19 22 21 21 21 21 22 23 25 25 27 29
25 27 23 23 12 14 18 21 20 25 26 27 27 27 27 26 25 23 22 22 20 20 19 17 16 17 20 21 20 20 20 20 19 19 19 19 19 20 20 20 21 22 22 22 21 20 21 23 23
25 24 25 24 21 12 10 13 23 26 26 26 26 27 27 27 26 23 21 20 19 19 19 18 16 15 16 18 19 19 19 19 19 19 19 20 20 20 20 20 20 20 20 20 21 21 20 20 21
26 25 25 21 18 21 20 17 29 27 27 26 26 26 26 25 25 23 19 18 18 17 16 15 17 16 16 17 17 17 17 18 18 19 19 21 20 21 20 20 20 19 18 19 19 18 19 20 18

GFSSGP_sfc_dewp_036.txt.gz
Dewpoint
49 43 41 35 25 25 23 24 31 22 29 35 25 23 32 22 20 19 38 54 61 64 67 71 72 73 73 73 73 72 71 71 70 70 70 71 71 71 70 70 69 68 67 66 65 66 66 64 64
45 41 35 29 21 18 20 21 22 23 24 28 30 27 29 26 29 38 48 54 61 65 69 70 71 73 74 73 73 72 72 71 70 69 70 71 71 70 70 69 68 67 67 66 66 64 63 62 62
42 36 28 25 20 17 19 23 32 23 24 36 35 38 33 25 37 45 49 55 64 65 68 70 71 73 74 73 73 72 72 72 70 70 69 69 70 70 70 69 68 67 66 65 64 63 61 59 58
37 31 26 17 23 26 27 30 20 28 33 27 36 33 22 31 33 45 52 57 63 65 68 69 71 73 73 73 73 72 72 71 71 70 70 69 70 70 70 69 67 66 65 64 63 61 59 56 54
31 26 21 20 25 28 25 20 22 22 35 34 35 31 24 29 49 52 54 60 61 63 66 68 71 72 73 73 73 72 72 72 72 71 71 71 71 70 69 68 66 64 62 61 62 59 57 54 51
29 23 19 17 26 20 23 21 23 19 19 29 33 31 29 32 45 50 53 54 61 63 65 67 68 70 71 72 72 72 72 72 72 72 71 71 70 69 68 68 65 63 61 60 60 58 55 52 49
27 19 21 24 17 18 20 20 32 31 21 34 35 31 28 37 32 42 51 51 55 61 64 65 67 68 68 69 70 70 71 71 71 71 71 70 70 69 68 66 66 63 61 60 60 57 54 51 47
29 23 25 24 16 16 20 19 20 33 17 21 23 23 28 35 37 48 50 52 52 57 62 63 65 69 68 68 66 66 68 69 70 69 68 67 67 67 66 64 65 64 62 60 60 56 53 51 46
26 16 13 19 16 20 23 22 21 22 23 20 21 34 21 34 39 43 42 43 47 52 55 62 63 67 67 69 66 65 66 67 67 67 65 63 65 64 62 62 63 65 64 61 60 56 54 51 46
22 14 11 19 30 32 24 25 27 30 22 21 19 23 26 26 33 33 32 32 32 36 44 53 61 65 67 67 68 68 66 68 68 67 66 65 64 63 62 60 61 63 62 62 59 56 54 44 29
28 16 20 24 25 26 25 24 24 29 21 22 22 25 25 29 31 32 32 32 32 33 34 35 43 61 65 66 67 67 68 66 67 66 66 65 64 62 61 61 61 61 58 57 57 53 49 38 29
31 28 26 29 29 27 25 26 25 25 24 27 24 26 30 30 31 32 32 32 32 33 34 35 36 39 61 65 66 66 66 65 63 64 65 64 63 62 60 60 59 59 57 55 53 50 48 42 37
31 27 27 28 28 26 26 25 23 22 23 22 29 30 30 30 31 31 32 32 32 32 34 35 37 39 53 63 64 65 65 66 65 64 64 63 62 61 60 59 58 57 56 55 53 50 48 44 36
23 25 25 25 25 25 23 22 23 22 22 24 29 29 30 30 31 31 31 31 31 32 33 35 38 41 49 59 62 63 63 62 64 64 63 61 61 60 60 59 57 56 55 54 51 49 47 44 35
26 22 21 20 22 21 24 20 22 22 22 24 28 29 30 30 30 30 31 31 31 32 33 34 37 43 54 57 58 61 63 62 62 62 62 62 61 60 59 58 57 57 55 53 51 49 46 42 35
21 19 18 17 24 23 25 20 23 21 23 26 28 28 29 29 30 30 30 31 31 32 32 34 36 42 53 56 57 58 58 58 59 60 61 61 61 61 59 58 57 56 54 52 50 48 46 43 38
19 19 16 18 24 23 20 20 22 24 23 27 28 28 28 28 28 28 28 29 30 31 31 33 35 38 47 49 50 49 48 49 49 50 52 55 57 58 59 58 57 56 54 52 50 47 45 43 39
18 18 18 17 22 23 22 22 24 24 23 27 28 28 28 27 27 26 26 27 29 30 31 32 34 35 39 43 41 40 39 39 40 40 42 44 47 51 53 53 53 53 52 50 48 47 42 38 36
17 19 18 20 23 23 23 23 23 25 27 28 28 28 27 26 26 25 25 26 27 28 29 30 32 33 35 37 41 37 35 35 35 35 35 35 37 42 46 48 48 49 48 47 45 43 42 41 34
20 19 19 22 24 23 23 23 25 28 28 28 28 27 26 24 24 24 24 25 25 26 27 28 30 32 33 35 36 36 35 34 33 34 33 33 34 35 36 41 43 44 44 44 43 42 40 38 35
21 19 21 21 24 23 24 21 24 28 28 28 28 28 26 24 24 23 23 23 24 24 25 25 26 29 31 32 32 32 32 31 30 30 30 29 28 31 32 33 35 38 40 41 41 41 39 39 37
22 25 24 23 24 22 24 19 20 26 27 27 26 26 25 25 25 23 21 22 23 23 24 24 22 22 24 27 26 25 23 21 27 26 26 25 25 24 25 28 30 32 33 34 36 39 37 36 36
25 27 25 23 22 20 21 19 19 26 25 26 26 25 25 25 24 22 21 21 21 22 22 22 21 20 20 21 21 20 21 22 22 22 22 24 23 23 24 24 23 24 26 28 31 33 35 37 34
25 24 24 23 21 19 20 20 20 23 24 26 26 26 25 25 24 23 22 19 19 20 21 20 18 19 19 18 18 17 16 17 17 19 20 22 23 21 23 23 23 23 23 25 27 28 30 32 34
23 22 20 18 18 20 22 19 20 25 27 27 26 26 26 25 23 22 20 16 17 18 19 19 18 19 19 18 17 17 17 17 18 20 20 20 21 21 21 22 23 23 23 24 25 24 26 27 27
23 23 21 12 14 16 23 21 23 27 27 27 27 26 25 24 24 23 21 17 14 16 18 19 20 19 19 19 18 18 19 19 19 19 19 19 20 21 21 21 21 21 22 22 22 23 23 23 25
22 21 24 21 12 16 21 22 26 27 26 25 25 25 24 24 24 24 23 20 15 14 15 18 20 20 18 18 19 19 18 18 18 18 19 19 19 18 19 19 19 20 20 20 20 21 21 22 22
25 26 23 23 13 11 18 19 19 25 25 25 25 24 24 25 24 24 24 21 19 16 15 15 17 19 19 19 19 18 19 19 18 19 19 19 19 19 19 19 19 19 19 19 19 19 19 19 19
24 24 25 24 21 15 11 13 23 24 26 25 25 25 26 26 25 24 23 22 19 19 17 16 15 16 17 18 18 18 18 18 19 19 19 20 20 20 20 20 20 19 19 19 19 18 17 17 17
26 25 25 22 19 19 19 18 29 27 27 26 26 27 28 28 27 25 22 20 19 18 17 15 15 15 16 17 18 18 18 18 18 18 19 21 20 21 21 20 19 18 17 17 17 16 16 16 15

GFSSGP_sfc_dewp_042.txt.gz
Dewpoint
48 42 42 39 28 26 23 23 24 24 22 26 26 24 23 24 22 24 47 52 60 62 67 71 73 74 73 73 72 72 72 71 71 72 72 71 71 70 69 69 68 67 67 66 66 65 64 64 64
40 39 39 33 21 14 17 23 22 24 25 26 26 24 22 24 30 38 45 54 61 63 67 69 72 73 73 73 73 72 72 71 71 71 72 71 71 70 69 68 68 67 66 66 65 63 61 61 61
38 32 34 29 24 13 17 22 22 24 24 24 24 26 25 27 34 39 50 55 62 63 67 69 71 73 72 73 73 72 72 72 70 70 71 70 70 70 69 68 67 66 66 65 64 62 60 58 57
37 34 28 19 18 20 18 19 22 24 24 25 23 20 24 36 41 49 53 58 61 63 66 69 71 72 73 73 73 72 72 71 70 70 70 70 70 70 69 68 66 65 65 64 63 61 59 55 55
32 30 24 20 19 18 20 22 23 23 23 22 22 19 24 33 43 52 55 58 60 64 66 68 71 72 72 72 73 72 72 72 71 70 69 69 70 70 69 67 65 64 63 63 62 60 57 53 54
30 28 21 16 17 20 21 22 22 19 18 21 18 19 26 33 38 50 53 58 61 63 67 67 68 70 71 71 71 71 71 71 71 71 70 70 69 69 68 67 65 63 63 62 62 59 56 52 53
27 26 22 22 19 20 20 21 18 17 17 20 22 18 25 28 40 51 53 54 61 64 66 67 67 69 67 69 70 70 70 70 70 70 70 69 69 69 68 68 66 63 63 63 61 59 56 52 51
29 26 23 21 18 20 22 20 21 20 19 22 23 17 21 28 37 44 41 40 41 44 53 62 67 68 69 69 67 67 68 69 69 69 68 67 67 67 66 64 65 64 63 63 60 58 56 52 51
27 16 18 21 20 20 23 20 23 24 21 22 24 25 29 32 34 37 36 36 37 37 39 42 50 64 66 68 67 66 65 66 66 67 66 65 67 67 65 63 64 64 64 62 60 58 55 48 39
23 19 13 19 20 21 23 22 23 21 22 20 24 29 31 32 33 33 33 33 34 36 38 39 42 46 56 66 67 68 68 68 67 68 67 66 65 66 65 61 62 63 62 63 60 58 53 51 37
27 16 15 20 23 25 25 25 25 23 22 22 24 27 31 31 32 32 32 33 34 36 37 39 41 43 47 64 67 69 69 67 68 66 67 67 67 66 65 64 63 63 59 60 59 57 56 53 46
22 26 23 29 30 27 26 26 24 25 25 28 29 30 30 30 31 31 32 34 35 37 39 41 44 46 45 58 66 67 68 68 67 67 66 66 67 66 65 64 63 63 61 59 58 57 57 54 48
27 27 28 29 30 28 27 25 23 24 28 29 29 30 29 29 30 31 33 34 36 37 40 43 48 51 50 51 65 66 66 66 66 66 65 65 66 66 66 64 63 62 61 59 59 57 55 55 52
25 26 25 25 25 25 25 23 24 23 28 28 28 28 29 29 30 31 32 34 35 38 42 46 49 54 51 55 65 65 64 62 61 61 62 63 63 63 63 63 62 61 60 59 57 56 54 52 49
26 23 23 22 22 22 25 23 22 23 27 27 27 28 28 28 29 30 31 33 35 39 44 43 48 57 57 58 57 57 56 56 56 56 56 58 61 61 60 59 59 59 58 57 55 52 52 51 48
22 22 24 21 24 23 25 23 23 23 25 27 27 27 27 27 27 29 30 32 34 39 40 43 48 51 50 50 50 49 49 49 49 50 52 53 55 56 56 55 55 56 54 54 53 51 50 49 47
23 22 22 21 23 23 24 25 24 25 25 27 27 26 25 26 27 28 29 31 34 37 39 42 45 46 45 45 43 42 42 43 44 45 45 48 51 51 52 53 53 53 52 51 51 49 50 49 48
24 22 21 21 21 23 23 22 24 25 26 27 26 25 25 25 25 27 29 31 34 37 39 40 41 43 42 41 40 41 40 38 38 38 40 42 43 48 49 49 49 49 50 49 50 49 47 46 43
23 22 21 21 22 24 24 23 23 26 26 27 26 25 24 24 25 26 28 30 33 35 37 37 39 40 43 43 42 39 36 33 31 31 34 36 37 39 42 42 43 45 45 45 44 47 46 45 42
22 22 22 22 22 24 22 23 24 27 27 27 26 24 24 24 24 25 26 28 30 31 33 35 35 37 38 39 38 34 29 26 25 26 26 27 29 30 32 35 35 37 38 38 40 42 43 43 41
22 22 21 22 24 24 24 24 26 27 28 28 26 25 24 24 23 23 23 24 26 27 29 30 32 33 34 33 31 27 24 22 20 20 22 23 23 24 22 24 25 27 30 30 33 36 38 38 39
21 23 22 22 22 23 23 23 25 25 27 27 27 24 23 24 23 22 21 21 22 23 25 25 27 27 27 29 29 26 21 17 16 19 22 23 24 22 21 22 23 23 23 24 23 24 26 30 31
25 26 23 24 23 24 22 22 23 25 25 26 26 25 24 25 23 20 20 20 18 20 22 21 21 21 22 23 23 21 20 18 16 19 22 23 22 22 21 21 21 21 21 24 24 24 24 22 20
27 25 24 24 24 24 25 24 23 23 24 26 27 25 24 24 21 20 19 18 16 18 19 19 17 17 18 18 18 18 19 19 19 20 21 20 19 19 20 19 19 18 20 21 22 22 22 22 20
26 26 25 24 24 24 21 22 23 24 25 26 27 25 24 24 21 19 18 16 15 16 18 16 14 14 16 17 17 18 18 19 19 19 19 18 18 17 17 18 18 17 16 18 20 20 20 20 19
25 27 27 26 22 21 24 21 21 26 28 28 28 26 25 24 21 20 18 17 15 16 15 14 15 14 15 16 17 18 19 18 18 17 17 17 17 17 17 17 16 15 15 14 16 17 18 19 19
25 24 27 23 22 26 20 22 25 28 27 27 27 26 24 24 23 20 18 17 16 17 15 14 13 15 15 16 17 18 19 19 18 18 18 17 17 15 16 15 15 15 15 16 15 18 19 19 19
25 26 24 25 26 25 20 21 21 25 26 26 27 26 25 25 24 22 18 16 16 15 15 15 14 15 17 17 18 18 19 19 19 18 18 18 18 16 15 14 13 14 14 15 16 17 18 17 19
24 24 24 24 26 28 23 18 22 24 27 26 27 27 25 25 24 23 21 17 15 15 16 14 15 16 17 18 19 20 19 19 19 19 19 18 17 15 13 13 13 13 13 14 14 15 15 16 17
25 24 24 24 24 22 23 23 24 26 27 27 27 28 27 26 25 23 24 22 16 13 14 14 15 17 17 19 20 20 20 20 19 18 18 18 14 14 13 11 11 10 11 11 12 12 13 14 12

GFSSGP_sfc_dewp_045.txt.gz
Dewpoint
50 38 39 40 30 22 20 21 21 20 20 24 24 21 20 22 23 28 48 54 57 62 67 70 73 73 73 73 72 72 72 71 72 71 71 71 70 69 69 68 67 67 66 66 64 64 63 63 64
37 36 40 32 22 13 15 19 20 20 23 25 23 22 19 22 31 39 44 54 58 61 66 68 72 73 73 73 72 72 72 71 71 71 71 71 70 69 68 68 67 67 66 65 64 62 60 59 62
40 32 34 26 18 12 15 18 19 20 21 21 20 23 23 27 35 39 50 54 59 62 65 69 72 72 73 73 72 72 72 71 71 71 70 70 70 69 68 68 66 66 65 65 64 62 59 57 59
36 33 26 21 15 19 16 17 20 19 21 23 21 18 27 39 44 50 54 56 58 61 65 70 71 72 72 72 72 72 71 71 70 70 70 70 70 69 68 67 66 65 64 64 63 61 57 56 57
32 28 21 18 16 14 16 20 22 20 18 18 19 18 28 34 47 51 54 55 57 61 64 69 71 72 72 71 71 71 71 71 70 70 69 69 69 69 68 66 65 64 63 63 62 59 56 55 57
28 26 18 15 13 15 18 21 20 17 15 16 14 19 29 37 40 50 51 56 58 62 65 66 68 69 71 71 71 71 71 71 70 70 69 69 69 69 68 66 64 64 64 63 61 59 55 53 55
27 22 18 16 16 17 17 21 18 14 15 19 20 17 27 29 41 50 50 55 60 63 64 65 65 68 67 69 70 70 70 69 69 69 69 69 69 69 68 67 65 64 64 62 60 58 55 52 52
26 20 18 16 15 18 20 19 19 18 18 22 22 18 23 30 35 45 42 43 46 50 55 61 66 67 68 69 67 67 68 69 69 69 68 67 67 67 65 65 66 64 64 62 60 58 56 49 47
27 14 13 14 15 17 22 19 21 23 20 21 25 26 30 31 34 38 40 38 40 40 43 46 52 63 65 67 67 66 66 66 66 67 66 65 67 67 64 63 65 64 64 61 60 58 55 46 42
23 18 9 15 16 18 21 20 21 20 20 20 25 29 31 32 33 34 34 34 35 37 39 40 43 48 59 64 66 67 68 68 65 66 67 66 65 66 65 62 62 63 63 62 60 58 55 54 43
24 15 13 17 21 22 22 22 23 20 20 21 22 28 30 31 32 32 33 34 35 37 38 40 43 44 47 62 66 68 68 67 65 66 66 66 67 65 66 64 63 63 59 60 60 58 57 55 50
21 21 17 26 27 26 24 24 22 23 26 28 29 30 29 30 31 32 33 34 36 38 40 43 46 48 47 54 66 68 67 66 67 66 66 66 66 66 65 65 64 64 62 61 60 58 58 56 51
23 23 25 27 29 27 28 25 23 23 28 28 29 29 29 29 30 32 33 35 37 39 43 47 51 53 50 50 65 67 66 65 64 64 64 65 65 65 66 65 64 64 62 61 61 58 56 57 54
25 26 23 25 26 26 25 22 24 22 27 27 28 28 28 29 29 30 32 34 37 41 46 49 52 56 48 57 63 62 61 60 59 59 61 63 63 63 63 62 61 60 60 59 58 56 55 54 52
25 22 22 23 24 23 25 23 24 24 26 26 27 27 28 28 28 29 31 34 38 44 46 47 52 56 57 55 55 56 56 55 55 56 56 57 59 60 59 59 59 58 58 56 55 53 53 53 51
23 24 24 24 24 24 25 23 23 25 25 25 26 27 28 27 27 29 31 34 40 44 44 47 50 51 49 48 49 48 49 50 50 51 52 54 54 56 55 55 54 54 54 54 53 52 51 51 50
25 21 24 23 23 24 25 24 25 24 24 25 27 27 26 27 27 29 31 35 41 41 44 45 47 46 45 44 44 44 43 44 45 46 47 49 51 52 52 53 53 52 52 52 52 51 51 51 49
22 23 23 23 22 23 24 23 24 24 23 25 27 26 26 26 26 29 32 36 41 41 43 44 45 44 44 43 41 40 39 39 39 40 40 41 43 46 47 48 49 48 48 47 49 49 49 47 44
24 23 22 23 22 23 23 22 22 25 25 26 27 26 25 25 27 30 33 37 40 40 40 42 43 43 44 44 42 40 36 35 33 32 34 35 36 39 40 40 41 42 42 42 42 45 46 45 43
25 24 23 24 22 23 23 24 25 25 26 27 27 26 25 25 25 29 32 35 38 39 40 40 41 43 43 42 39 35 31 29 28 27 28 27 30 28 30 33 33 35 34 35 37 39 41 41 41
24 24 23 23 25 24 23 25 26 26 27 27 28 27 25 24 24 27 30 33 35 36 37 37 38 39 38 37 32 29 28 26 24 24 25 26 26 27 25 26 27 28 28 26 28 29 30 33 36
24 25 24 23 24 23 26 22 25 27 27 28 28 26 24 25 25 25 26 29 30 31 33 34 34 34 34 34 33 31 25 21 21 22 25 26 27 23 24 25 26 26 27 28 27 26 26 26 25
25 26 25 25 26 27 27 24 24 26 26 27 28 27 25 26 25 24 24 24 24 27 28 28 27 26 27 28 28 27 25 23 20 22 26 25 26 25 21 22 24 24 24 28 27 28 27 25 22
28 27 26 26 27 26 26 25 25 25 25 26 28 26 25 25 24 22 22 21 21 25 25 24 22 22 23 23 24 23 23 22 23 23 24 23 21 20 21 20 20 19 22 24 25 26 25 25 23
27 27 28 26 25 25 24 26 26 27 25 26 27 26 25 25 23 21 20 18 19 22 23 21 19 18 20 22 21 21 20 21 22 22 21 20 19 18 17 18 19 17 16 20 23 24 24 24 23
28 29 29 28 26 25 23 23 24 27 27 27 28 27 25 25 23 21 20 19 17 20 19 16 20 16 17 18 19 21 21 20 19 18 18 17 17 17 17 17 17 16 16 15 20 22 23 23 25
28 27 30 28 27 25 22 23 25 29 27 27 27 26 25 25 24 22 20 18 16 18 16 16 15 18 16 18 19 19 20 20 19 19 19 18 17 15 16 16 16 16 16 17 17 22 23 23 24
28 28 26 26 28 26 23 23 21 27 26 27 27 27 25 25 24 22 20 19 17 17 15 15 15 16 18 18 19 19 20 19 19 19 20 19 17 16 15 15 15 15 16 16 17 22 22 20 23
26 26 26 26 28 29 25 21 24 27 27 27 28 27 26 26 25 22 21 20 19 18 16 15 16 18 19 20 21 21 21 20 20 21 20 19 18 16 15 14 15 14 14 15 15 17 17 18 19
27 26 26 26 27 25 27 25 21 26 27 27 28 28 27 26 26 22 21 19 19 17 15 14 16 18 20 20 22 21 20 21 21 19 19 22 17 16 15 13 12 12 12 12 13 13 15 15 14

GFSSGP_sfc_dewp_048.txt.gz
Dewpoint
51 40 41 45 39 33 24 25 22 24 23 22 23 20 25 28 30 37 49 56 57 66 70 72 73 73 73 73 73 73 73 73 71 72 71 71 70 69 68 68 67 66 66 65 64 62 62 64 64
42 37 44 41 31 22 19 20 22 24 24 24 23 22 24 30 39 45 50 57 59 66 69 70 72 72 73 72 73 72 72 72 72 71 71 70 69 69 68 67 67 66 65 65 64 61 59 61 63
45 35 40 36 27 19 20 20 19 20 21 23 19 23 29 36 44 47 51 57 59 64 67 71 71 72 72 72 73 72 72 72 72 71 70 70 69 69 68 67 66 65 64 64 62 59 58 58 61
38 39 33 26 22 20 18 19 19 20 22 22 20 27 35 46 47 51 55 56 61 63 70 70 71 72 72 72 72 72 71 71 71 71 70 70 69 68 67 66 65 65 64 63 61 58 57 58 60
37 35 31 23 18 16 18 20 22 20 19 18 18 29 32 42 49 52 54 55 59 61 69 70 71 71 71 71 71 71 71 71 71 71 70 69 69 68 67 66 65 65 63 62 60 57 55 57 58
36 31 26 20 16 15 19 21 21 17 15 16 19 29 34 41 49 50 54 56 59 63 66 69 68 69 71 70 70 70 70 70 70 70 70 69 69 68 67 66 65 65 64 62 60 56 54 54 54
35 31 26 22 19 17 19 21 18 15 15 20 20 26 30 34 45 48 50 55 59 63 64 65 68 68 67 68 69 69 69 69 69 69 69 69 69 69 68 67 65 65 63 62 60 57 52 50 49
35 26 19 16 18 20 21 20 19 19 21 22 25 24 27 31 37 44 44 45 48 48 50 54 63 66 67 69 67 68 68 68 68 68 68 67 67 66 66 65 65 65 63 62 60 58 51 46 45
33 24 19 18 19 21 22 20 22 24 21 25 27 29 31 32 35 41 41 41 41 42 42 45 49 60 64 66 67 65 66 66 66 66 65 64 67 65 63 63 65 65 63 62 60 58 52 47 48
29 27 21 18 18 20 22 20 21 20 20 24 28 31 32 33 35 35 35 35 36 37 39 42 43 46 55 63 65 68 68 67 67 67 67 67 66 66 63 61 63 63 63 62 60 58 56 55 44
29 24 17 19 27 26 23 23 23 21 21 26 25 29 31 32 32 33 34 35 37 38 41 43 45 46 46 61 65 67 67 66 65 66 65 65 65 64 64 62 62 61 60 60 60 58 57 52 49
26 25 19 30 31 28 26 26 24 23 28 29 30 30 30 31 32 32 34 35 37 39 43 47 50 50 47 49 64 65 66 66 65 65 65 65 65 64 63 63 64 63 62 60 59 58 57 54 50
26 24 25 28 31 28 29 27 24 25 28 29 29 30 29 30 31 33 33 36 38 41 47 50 52 54 51 48 64 64 63 62 61 62 62 63 63 63 63 63 62 61 61 60 58 56 56 53 53
28 27 24 28 29 29 27 25 25 24 28 28 28 29 29 29 29 31 33 35 38 45 48 49 53 57 56 59 60 59 57 57 57 57 58 60 62 61 60 60 59 58 59 58 56 55 54 53 51
29 25 24 24 25 26 27 25 24 25 27 27 27 28 29 29 29 30 32 35 41 46 47 49 52 53 53 54 55 54 54 54 54 54 55 56 57 56 55 55 54 55 55 55 54 53 53 52 51
25 25 25 26 26 27 26 24 26 26 26 26 26 27 28 28 28 30 32 36 44 44 46 49 49 48 48 49 49 49 49 50 50 51 52 53 53 54 53 52 52 53 53 53 52 52 52 51 50
26 23 24 26 26 25 25 26 25 25 25 25 26 27 27 27 28 30 32 39 42 44 45 47 47 45 45 45 44 44 44 44 44 45 46 47 51 51 51 50 50 50 50 50 50 48 48 46 45
24 24 24 24 23 24 25 24 24 24 24 25 26 27 27 27 27 30 34 40 41 44 45 45 45 44 43 42 40 40 39 38 38 39 39 41 43 44 44 44 43 44 43 43 43 47 47 43 41
24 24 24 24 24 24 24 24 24 24 24 24 25 27 27 26 28 31 35 41 41 42 44 44 44 44 44 43 40 37 34 33 32 31 32 32 34 37 38 38 39 36 36 36 36 41 41 40 39
25 24 24 25 24 24 24 24 25 25 24 25 26 27 27 26 27 31 35 40 41 40 41 42 43 44 43 40 38 34 31 29 28 28 27 29 29 29 28 29 29 29 28 28 28 27 36 35 31
26 25 24 25 25 25 23 24 25 27 27 26 27 28 27 25 26 30 34 37 38 39 40 40 41 40 37 34 30 28 27 27 26 26 26 27 27 28 27 27 28 28 29 27 27 26 26 26 29
25 27 26 26 25 22 25 23 26 27 27 27 28 28 26 25 26 29 32 34 35 35 36 37 37 36 34 32 30 28 25 22 24 26 27 27 27 25 26 26 27 27 28 27 26 27 25 25 24
26 29 27 27 25 27 25 25 26 28 26 27 28 28 26 25 26 28 30 31 30 32 32 31 30 29 29 30 28 25 23 24 24 26 26 26 26 25 24 24 25 25 27 26 26 25 25 25 23
29 28 28 28 27 25 26 26 26 27 26 27 29 28 26 26 25 26 26 25 27 27 27 26 25 25 26 26 25 24 23 24 25 26 25 25 24 24 22 21 21 22 24 25 25 24 24 24 23
28 27 27 25 25 25 25 26 26 28 26 27 29 29 26 26 24 23 22 22 24 25 25 24 22 22 24 24 24 24 23 24 24 24 23 22 22 21 19 20 20 19 19 23 24 23 22 24 23
28 28 29 22 24 25 23 23 25 29 28 28 29 28 25 25 24 22 21 21 22 24 22 20 22 20 21 22 22 23 24 24 24 22 22 22 21 20 19 19 19 19 19 19 23 23 22 22 23
29 27 30 28 21 22 26 25 26 28 28 27 28 27 25 25 23 22 21 19 21 22 18 19 19 20 20 21 22 21 21 21 21 21 21 20 20 18 18 18 18 18 19 19 21 22 20 21 21
29 30 27 27 20 21 26 26 24 27 26 27 28 26 25 25 24 22 21 19 19 19 18 18 18 19 21 21 22 21 22 21 21 21 20 18 18 18 18 17 17 17 17 17 18 19 19 19 20
27 26 27 27 29 24 23 24 25 26 27 26 27 27 25 25 24 21 21 19 18 18 17 17 18 20 21 22 22 22 22 21 22 22 21 20 19 18 17 17 17 16 15 15 15 16 15 16 17
29 28 27 26 25 26 26 25 22 27 28 27 28 27 26 25 24 22 21 19 18 17 16 16 18 20 21 22 23 22 22 22 21 21 20 20 18 18 16 16 15 14 14 13 13 13 14 14 14